This demonstration page uses our WeatherBlox Daily Observations layout. Learn more.

Left ArrowRight Arrow

38.80484, -77.04692

Hourly Observations for February 27, 2016

Temp ( °F °C ) Dew Point ( °F °C ) Humidity (%) Winds ( mph kmh ) Pressure ( in mb ) Visibility ( mi km ) Precip ( " mm )
12:52 am 00:52 Partly Cloudy 32 0 14 -10 47 47 WNW 6 9 30.20 1023 10 16 0.00 0.00
1:52 am 01:52 Mostly Cloudy 31 -0.6 14 -10 49 49 W 7 11 30.21 1023 10 16 0.00 0.00
2:52 am 02:52 Clear 31 -0.6 14 -10 49 49 W 5 7 30.20 1023 10 16 0.00 0.00
3:52 am 03:52 Partly Cloudy 30 -1.1 14 -10 51 51 WNW 5 7 30.19 1023 10 16 0.00 0.00
4:52 am 04:52 Partly Cloudy 28 -2.2 16 -8.9 60 60 SSW 5 7 30.20 1023 10 16 0.00 0.00
5:52 am 05:52 Partly Cloudy 28 -2.2 16 -8.9 60 60 SSW 6 9 30.21 1023 10 16 0.00 0.00
6:52 am 06:52 Mostly Cloudy 28 -2.2 17 -8.3 63 63 SW 6 9 30.21 1023 10 16 0.00 0.00
7:52 am 07:52 Mostly Cloudy 31 -0.6 17 -8.3 56 56 SW 6 9 30.22 1023 10 16 0.00 0.00
8:52 am 08:52 Cloudy 33 0.6 16 -8.9 49 49 SSW 7 11 30.22 1023 10 16 0.00 0.00
9:52 am 09:52 Partly Cloudy 38 3.3 17 -8.3 43 43 W 9 15 30.21 1023 10 16 0.00 0.00
10:52 am 10:52 Partly Cloudy 39 3.9 16 -8.9 39 39 VRB 5 7 30.19 1022 10 16 0.00 0.00
11:52 am 11:52 Partly Cloudy 41 5 17 -8.3 38 38 W 7 11 30.16 1021 10 16 0.00 0.00
12:52 pm 12:52 Mostly Cloudy 44 6.7 19 -7.2 37 37 W 12 19 30.13 1020 10 16 0.00 0.00
1:52 pm 13:52 Partly Cloudy 45 7.2 20 -6.7 37 37 W 10 17 30.11 1020 10 16 0.00 0.00
2:52 pm 14:52 Partly Cloudy 45 7.2 19 -7.2 35 35 W 13 20 30.08 1019 10 16 0.00 0.00
3:52 pm 15:52 Mostly Sunny 47 8.3 21 -6.1 36 36 WNW 14 22 30.08 1019 10 16 0.00 0.00
4:52 pm 16:52 Partly Cloudy 46 7.8 20 -6.7 35 35 SW 10 17 30.07 1018 10 16 0.00 0.00
5:52 pm 17:52 Mostly Sunny 45 7.2 21 -6.1 39 39 SW 9 15 30.08 1019 10 16 0.00 0.00
6:52 pm 18:52 Clear 42 5.6 22 -5.6 45 45 SSW 7 11 30.08 1019 10 16 0.00 0.00
7:52 pm 19:52 Clear 40 4.4 29 -1.7 65 65 SSW 5 7 30.09 1019 10 16 0.00 0.00
8:52 pm 20:52 Clear 41 5 26 -3.3 55 55 SSW 5 7 30.09 1019 10 16 0.00 0.00
9:52 pm 21:52 Clear 41 5 24 -4.4 51 51 SW 5 7 30.11 1020 10 16 0.00 0.00
10:52 pm 22:52 Clear 39 3.9 28 -2.2 65 65 S 5 7 30.10 1019 10 16 0.00 0.00
11:52 pm 23:52 Clear 37 2.8 29 -1.7 73 73 S 6 9 30.10 1019 10 16 0.00 0.00

Powered by AerisWeather